Location: Cabri�res
(43.7840°N, 5.4986°E)
Time: 13:14:25
(UTC+00:00)

Terra - Pass Details

Date: 09 April 2020
Orbit: 701 x 703 km, 98.2° (Epoch: 27 May)

Event Time Altitude Azimuth Distance (km) Brightness Sun altitude
Exits shadow 20:29:32 21° 54° (NE) 1,559 3.4 -22.8°
Drops below altitude 10° 20:32:33 10° 15° (NNE) 2,181 4.6 -23.2°
Sets 20:35:15 0° 0° (N) 3,104 5.7 -23.6°
